Weather in Dushanbe

Tajikistan     38°34′28″N   68°46′48″E
temp.,
°C
wind,
m/s
gust,
m/s
humid.,
%
clouds,
%
prec.,
mm/h
press.,
hPa
HPBL,
m
9 may, sun
sun923:00+18ene115968 0.1 101412
02:00+17ene116178 0.0 101312
05:00+16ne116246 0.1 101312
08:00+20sse115365 0.1 1014133
11:00+26sse113942 0.1 10121074
14:00+28n333438 0.0 10102442
17:00+23ssw125195 0.2 101086
20:00+21n005322 0.1 101011
10 may, mon
mon1023:00+18ne11586 0.1 101012
02:00+17ene115980 0.0 100912
05:00+16ene1158100 0.0 100912
08:00+21se1151100 0.0 1009107
11:00+26s113844 0.0 1008654
14:00+29nne1231100 0.0 10062393
17:00+27n124497 0.0 1004167
20:00+20ese0169100 1.5 100711
11 may, tue
tue1123:00+17sw117984 4.1 101011
02:00+17ese1183100 3.1 101020
05:00+16e1185100 4.3 101111
08:00+18sse1176100 2.8 1013174
11:00+21se2258100 7.0 1013962
14:00+22ese336091 4.7 1014633
17:00+20nne4467100 6.2 1014358
20:00+15e3685100 2.0 1016172
12 may, wed
wed1223:00+14e117779 2.0 101511
02:00+14ene227646 0.0 101418
05:00+13ene11756 0.0 101411
08:00+18ese116133 0.0 1014212
11:00+21sse225476 0.2 1013638
14:00+21sw3360100 2.5 10101149
17:00+12nne2297100 51.2 1015157
20:00+13e1189100 4.1 101536
13 may, thu
thu1323:00+12ene228233 4.1 101415
02:00+12e11784 0.0 101314
05:00+11e11765 0.0 101313
08:00+17e12632 0.0 1013183
11:00+22ssw01440 0.0 10121128
14:00+24nw02380 0.0 10101892
17:00+24nne2143100 0.0 10091397
20:00+18ene11546 0.1 101011